DW1253 Weather Reports


time (UTC)temp
C
wind
direction
speed
KPH
gust
KPH
rain 1hr
cm
rain 24hr
cm
rain mn
cm
humidity
%
barometer
mb
20260901201401 25 188 3.2 8.0 0.00 0.10 0.08 87 1015.3
20260901200847 25 138 3.2 11.3 0.00 0.10 0.08 87 1015.4
20260901200333 25 227 3.2 11.3 0.00 0.10 0.08 88 1015.3
20260901195841 25 154 1.6 9.7 0.00 0.13 0.08 88 1015.3
20260901195337 25 178 3.2 8.0 0.00 0.13 0.08 87 1015.3
20260901194844 25 147 3.2 11.3 0.00 0.13 0.08 88 1015.3
20260901194342 25 216 3.2 11.3 0.00 0.13 0.08 89 1015.3
20260901193847 25 222 3.2 6.4 0.00 0.13 0.08 89 1015.4
20260901193408 25 51 3.2 6.4 0.00 0.13 0.08 88 1015.3
20260901192845 25 151 1.6 6.4 0.00 0.13 0.08 89 1015.6
20260901192338 25 261 3.2 6.4 0.00 0.13 0.08 88 1015.5
20260901191910 25 53 1.6 8.0 0.00 0.13 0.08 88 1015.7
20260901191337 25 48 3.2 8.0 0.00 0.13 0.08 88 1015.6
20260901190844 25 112 3.2 11.3 0.00 0.13 0.08 89 1015.7
20260901190347 25 83 3.2 11.3 0.00 0.13 0.08 88 1015.6
20260901185831 25 113 1.6 9.7 0.00 0.13 0.08 88 1015.7
20260901185338 25 139 3.2 9.7 0.00 0.13 0.08 87 1015.8
20260901184834 25 55 3.2 8.0 0.00 0.13 0.08 87 1015.6
20260901183835 25 202 3.2 9.7 0.00 0.13 0.08 86 1015.5
20260901183337 25 219 3.2 9.7 0.00 0.13 0.08 86 1015.4
20260901182842 25 308 3.2 9.7 0.00 0.13 0.08 85 1015.3
20260901182337 25 80 3.2 9.7 0.00 0.13 0.08 86 1015.4
20260901181835 25 161 3.2 9.7 0.00 0.13 0.08 86 1015.3
20260901181337 25 80 1.6 6.4 0.00 0.13 0.08 85 1015.2
20260901180848 26 91 3.2 11.3 0.00 0.13 0.08 85 1015.3
20260901180410 26 236 6.4 11.3 0.00 0.13 0.08 84 1015.2
20260901175833 26 310 4.8 9.7 0.00 0.15 0.08 85 1015.1
20260901175341 26 218 3.2 11.3 0.00 0.15 0.08 86 1015.0
20260901174841 26 240 3.2 11.3 0.00 0.15 0.08 85 1015.0
20260901174343 26 252 4.8 9.7 0.00 0.15 0.08 85 1015.1
20260901173903 26 230 3.2 14.5 0.00 0.15 0.08 86 1014.9
20260901173345 26 242 6.4 14.5 0.00 0.15 0.08 84 1014.8
20260901172852 26 18 4.8 12.9 0.00 0.15 0.08 84 1014.6
20260901172351 26 173 3.2 12.9 0.00 0.15 0.08 86 1014.8
20260901171852 26 209 4.8 11.3 0.00 0.15 0.08 85 1014.8
20260901171334 26 205 4.8 9.7 0.00 0.15 0.08 84 1014.7
20260901170840 26 150 3.2 8.0 0.00 0.15 0.08 86 1014.6
20260901170343 26 275 3.2 6.4 0.00 0.15 0.08 84 1014.7
20260901165847 26 84 1.6 14.5 0.00 0.38 0.08 84 1014.6
20260901165401 26 211 6.4 16.1 0.00 0.38 0.08 85 1014.7
20260901164843 26 243 8.0 16.1 0.00 0.38 0.08 84 1014.8
20260901164343 26 228 4.8 12.9 0.00 0.38 0.08 85 1014.7
20260901163835 26 105 3.2 14.5 0.00 0.38 0.08 84 1014.7
20260901163338 26 232 8.0 14.5 0.00 0.38 0.08 85 1014.7
20260901162833 25 209 4.8 11.3 0.00 0.38 0.08 86 1014.7
20260901162346 25 244 4.8 11.3 0.03 0.38 0.08 86 1014.8
20260901161846 25 222 3.2 9.7 0.03 0.38 0.08 86 1014.9
20260901161410 25 207 4.8 12.9 0.03 0.38 0.08 85 1014.8
20260901160830 26 211 4.8 12.9 0.03 0.38 0.08 84 1014.9
20260901160331 26 269 3.2 14.5 0.03 0.38 0.08 85 1014.9
20260901155841 25 205 3.2 14.5 0.03 0.41 0.08 85 1014.8
20260901155402 25 221 6.4 14.5 0.03 0.41 0.08 85 1014.8
20260901154848 25 209 6.4 12.9 0.03 0.41 0.08 88 1014.8
20260901154345 25 242 4.8 9.7 0.03 0.41 0.08 87 1014.8
20260901153838 25 250 4.8 9.7 0.03 0.41 0.08 86 1014.7
20260901153343 25 238 4.8 19.3 0.03 0.41 0.08 88 1014.6
20260901152837 25 215 8.0 19.3 0.03 0.41 0.08 87 1014.6
20260901152343 25 198 4.8 14.5 0.00 0.38 0.05 88 1014.6
20260901151848 25 245 8.0 14.5 0.00 0.38 0.05 88 1014.5
20260901151354 25 163 3.2 9.7 0.00 0.38 0.05 89 1014.5
20260901150854 24 205 4.8 11.3 0.00 0.38 0.05 89 1014.5
20260901150358 24 194 3.2 11.3 0.00 0.38 0.05 89 1014.5
20260901145831 24 272 3.2 11.3 0.00 0.56 0.05 89 1014.4
20260901145339 24 177 3.2 11.3 0.00 0.56 0.05 89 1014.5
20260901144845 24 234 4.8 14.5 0.00 0.56 0.05 90 1014.4
20260901144352 24 212 4.8 14.5 0.00 0.56 0.05 90 1014.4
20260901143834 24 220 4.8 8.0 0.00 0.56 0.05 90 1014.5
20260901143335 24 182 1.6 11.3 0.00 0.56 0.05 90 1014.6
20260901142904 24 215 3.2 11.3 0.00 0.56 0.05 90 1014.5
20260901142403 24 252 3.2 9.7 0.00 0.56 0.05 90 1014.7
20260901141903 24 213 3.2 9.7 0.00 0.56 0.05 90 1014.6
20260901141334 24 186 3.2 6.4 0.00 0.56 0.05 91 1014.7
20260901140338 24 231 1.6 8.0 0.00 0.56 0.05 90 1014.7
20260901135846 24 214 3.2 11.3 0.00 0.69 0.05 90 1014.8
20260901135341 24 232 3.2 11.3 0.00 0.69 0.05 90 1014.8
20260901134835 24 207 4.8 11.3 0.00 0.69 0.05 91 1014.8
20260901134349 23 285 1.6 11.3 0.00 0.69 0.05 92 1014.8
20260901133842 23 281 3.2 11.3 0.00 0.69 0.05 92 1014.9
20260901133357 23 67 1.6 6.4 0.00 0.69 0.05 91 1014.9
20260901132910 23 176 1.6 9.7 0.00 0.69 0.05 91 1014.8
20260901132344 23 195 3.2 9.7 0.00 0.69 0.05 92 1014.7
20260901131859 23 311 4.8 8.0 0.00 0.69 0.05 93 1014.9
20260901131333 23 215 3.2 9.7 0.00 0.69 0.05 94 1014.7
20260901130847 23 242 4.8 9.7 0.00 0.69 0.05 95 1014.6
20260901130347 23 204 3.2 9.7 0.00 0.69 0.05 96 1014.8
20260901125835 22 192 3.2 8.0 0.00 0.71 0.05 97 1014.8
20260901125349 22 188 1.6 9.7 0.00 0.71 0.05 97 1015.0
20260901124843 22 205 3.2 9.7 0.00 0.71 0.05 97 1014.9
20260901124336 22 180 3.2 9.7 0.00 0.71 0.05 97 1014.9
20260901123833 22 193 1.6 8.0 0.00 0.71 0.05 97 1015.0
20260901123349 22 148 1.6 14.5 0.00 0.71 0.05 97 1014.9
20260901122842 22 216 1.6 11.3 0.00 0.71 0.05 97 1014.9
20260901122337 22 275 3.2 11.3 0.00 0.71 0.05 97 1014.8
20260901121851 21 145 1.6 16.1 0.00 0.71 0.05 97 1014.8
20260901121347 21 69 1.6 9.7 0.00 0.71 0.05 97 1014.7
20260901120841 21 128 3.2 8.0 0.00 0.71 0.05 97 1014.8
20260901120337 21 64 1.6 4.8 0.00 0.71 0.05 97 1014.6
20260901115845 21 196 1.6 6.4 0.00 0.71 0.05 97 1014.6
20260901115400 21 155 1.6 12.9 0.00 0.71 0.05 97 1014.5
20260901114851 21 92 1.6 12.9 0.00 0.71 0.05 97 1014.7
20260901114346 21 88 1.6 6.4 0.00 0.71 0.05 97 1014.6
20260901113841 21 158 1.6 11.3 0.00 0.71 0.05 97 1014.5
20260901113335 21 84 3.2 11.3 0.00 0.71 0.05 97 1014.4
20260901112833 21 173 3.2 9.7 0.00 0.71 0.05 97 1014.4
20260901112348 21 158 3.2 9.7 0.00 0.71 0.05 97 1014.4
20260901111903 21 69 3.2 9.7 0.00 0.71 0.05 96 1014.4
20260901111335 21 215 3.2 9.7 0.00 0.71 0.05 96 1014.3
20260901110852 20 165 1.6 8.0 0.00 0.71 0.05 96 1014.3
20260901110409 20 272 3.2 12.9 0.00 0.71 0.05 96 1014.3
20260901105835 20 285 4.8 12.9 0.00 0.71 0.05 97 1014.3
20260901105351 20 201 3.2 9.7 0.00 0.71 0.05 96 1014.2
20260901104846 20 194 3.2 11.3 0.00 0.71 0.05 96 1014.1
20260901104341 20 200 3.2 9.7 0.00 0.71 0.05 96 1014.2
20260901103835 20 196 4.8 11.3 0.00 0.71 0.05 96 1014.2
20260901103350 20 223 3.2 11.3 0.00 0.71 0.05 96 1014.1
20260901102843 20 185 4.8 8.0 0.00 0.71 0.05 96 1014.1
20260901102338 20 225 3.2 12.9 0.00 0.71 0.05 96 1014.0
20260901101851 20 205 4.8 12.9 0.00 0.71 0.05 96 1013.9
20260901101346 20 216 1.6 9.7 0.00 0.71 0.05 96 1013.9
20260901100901 20 191 3.2 11.3 0.00 0.71 0.05 96 1013.7
20260901100356 20 175 1.6 16.1 0.00 0.71 0.05 96 1013.7
20260901095842 20 209 3.2 6.4 0.00 0.71 0.05 96 1013.8
20260901095335 20 194 3.2 11.3 0.00 0.71 0.05 96 1013.8
20260901094850 20 244 4.8 11.3 0.00 0.71 0.05 96 1013.7
20260901094344 20 161 3.2 16.1 0.00 0.71 0.05 96 1013.8
20260901093900 20 221 4.8 16.1 0.00 0.71 0.05 96 1013.8
20260901093334 20 234 3.2 6.4 0.00 0.71 0.05 96 1013.8
20260901092847 20 219 3.2 8.0 0.00 0.71 0.05 96 1013.8
20260901092342 20 178 0.0 6.4 0.00 0.71 0.05 96 1013.8
20260901091840 20 178 1.6 6.4 0.00 0.71 0.05 96 1013.7
20260901091334 20 276 1.6 6.4 0.00 0.71 0.05 96 1013.7
20260901090848 20 97 0.0 4.8 0.00 0.71 0.05 96 1013.7
20260901090404 20 167 0.0 3.2 0.00 0.71 0.05 96 1013.8
20260901085848 20 167 1.6 4.8 0.00 0.74 0.05 96 1013.7
20260901085341 20 167 0.0 4.8 0.00 0.74 0.05 96 1013.8
20260901084835 20 167 1.6 4.8 0.00 0.74 0.05 96 1013.8
20260901084348 20 167 0.0 3.2 0.00 0.74 0.05 96 1013.8
20260901083842 20 167 0.0 4.8 0.00 0.74 0.05 96 1013.8
20260901083338 20 167 0.0 6.4 0.00 0.74 0.05 96 1013.8
20260901082833 20 167 1.6 4.8 0.00 0.74 0.05 96 1013.7
20260901082408 20 167 0.0 3.2 0.00 0.74 0.05 96 1013.8
20260901081840 20 163 0.0 3.2 0.00 0.74 0.05 96 1013.9
20260901081335 20 163 0.0 3.2 0.00 0.74 0.05 96 1013.9
20260901080851 20 163 0.0 3.2 0.00 0.74 0.05 96 1013.9
20260901080345 20 163 0.0 4.8 0.00 0.74 0.05 96 1013.8
20260901075833 20 193 0.0 3.2 0.00 0.81 0.05 96 1013.9
20260901075349 20 193 0.0 4.8 0.00 0.81 0.05 96 1013.9
20260901074844 20 193 1.6 4.8 0.00 0.81 0.05 96 1014.1
20260901074338 20 193 0.0 3.2 0.00 0.81 0.05 96 1014.2
20260901073912 20 193 0.0 3.2 0.00 0.81 0.05 96 1014.3
20260901073405 20 193 0.0 4.8 0.00 0.81 0.05 96 1014.4
20260901072839 20 193 1.6 4.8 0.00 0.81 0.05 96 1014.4
20260901072354 20 162 0.0 4.8 0.00 0.81 0.05 96 1014.5
20260901071847 20 162 1.6 4.8 0.00 0.81 0.05 96 1014.4
20260901071342 20 188 0.0 4.8 0.00 0.81 0.05 96 1014.5
20260901070857 20 197 0.0 4.8 0.00 0.81 0.05 96 1014.7
20260901070335 20 198 0.0 3.2 0.00 0.81 0.05 96 1014.8
20260901065900 20 198 1.6 3.2 0.00 0.84 0.05 96 1014.9
20260901065336 20 198 0.0 3.2 0.00 0.84 0.05 96 1014.9
20260901064831 20 198 0.0 3.2 0.00 0.84 0.05 96 1014.9
20260901064346 20 198 1.6 3.2 0.00 0.84 0.05 96 1015.0
20260901063842 20 198 0.0 1.6 0.00 0.84 0.05 96 1015.0
20260901063355 20 198 0.0 3.2 0.00 0.84 0.05 96 1015.1
20260901062849 20 198 0.0 3.2 0.00 0.84 0.05 96 1015.1
20260901062343 20 198 0.0 3.2 0.00 0.84 0.05 96 1015.2
20260901061839 20 198 0.0 3.2 0.00 0.84 0.05 96 1015.3
20260901061332 20 198 0.0 3.2 0.00 0.84 0.05 96 1015.3
20260901060846 20 198 1.6 3.2 0.00 0.84 0.05 96 1015.2
20260901060341 20 198 0.0 3.2 0.00 0.84 0.05 96 1015.2
20260901055848 20 198 0.0 4.8 0.00 0.84 0.05 96 1015.3
20260901055341 20 198 1.6 4.8 0.00 0.84 0.05 96 1015.3
20260901054836 20 212 0.0 3.2 0.00 0.84 0.05 96 1015.3
20260901054409 20 212 1.6 3.2 0.00 0.84 0.05 96 1015.2
20260901053903 20 212 0.0 3.2 0.00 0.84 0.05 96 1015.3
20260901053336 20 212 1.6 3.2 0.00 0.84 0.05 96 1015.2
20260901052911 20 212 1.6 4.8 0.00 0.84 0.05 96 1015.3
20260901052344 20 268 1.6 4.8 0.03 0.84 0.05 96 1015.6
20260901051838 20 236 1.6 4.8 0.03 0.84 0.05 96 1015.6
20260901051352 20 227 0.0 3.2 0.03 0.84 0.05 96 1015.7
20260901050907 20 251 0.0 3.2 0.03 0.84 0.05 96 1015.7
20260901050341 20 251 1.6 3.2 0.05 0.84 0.05 96 1015.8
20260901045848 20 251 1.6 3.2 0.05 0.86 0.05 96 1015.8
20260901045342 20 251 1.6 3.2 0.08 0.86 0.05 95 1015.8
20260901044837 20 251 1.6 3.2 0.08 0.86 0.05 95 1015.9
20260901044351 20 251 0.0 4.8 0.08 0.86 0.05 95 1015.9
20260901043904 20 251 1.6 4.8 0.08 0.86 0.05 96 1015.9
20260901043338 20 251 1.6 6.4 0.08 0.86 0.05 96 1015.9
20260901042836 20 251 4.8 12.9 0.05 0.84 0.03 96 1016.0
20260901042405 20 238 3.2 12.9 0.05 0.84 0.03 96 1016.1
20260901041841 20 236 3.2 8.0 0.05 0.84 0.03 96 1016.0
20260901041336 20 220 3.2 8.0 0.05 0.84 0.03 96 1016.0
20260901040910 20 240 1.6 4.8 0.03 0.81 0.00 96 1016.0
20260901040344 20 253 1.6 4.8 0.03 0.81 0.00 96 1016.0
20260901035911 20 253 1.6 4.8 0.03 0.89 0.81 96 1016.0
20260901035345 20 188 1.6 4.8 0.00 0.86 0.79 96 1016.1
20260901034839 20 269 0.0 0.0 0.00 0.86 0.79 96 1016.1
20260901034413 20 269 0.0 0.0 0.00 0.86 0.79 96 1016.1
20260901033845 20 269 0.0 0.0 0.00 0.86 0.79 96 1016.2
20260901033339 20 269 0.0 0.0 0.00 0.86 0.79 96 1016.1
20260901032852 20 269 0.0 0.0 0.00 0.86 0.79 96 1016.1
20260901032348 20 269 0.0 0.0 0.00 0.86 0.79 96 1016.2
20260901031843 20 269 0.0 0.0 0.00 0.86 0.79 96 1016.3
20260901031338 20 269 0.0 0.0 0.00 0.86 0.79 96 1016.3
20260901030853 20 269 0.0 0.0 0.00 0.86 0.79 95 1016.2
20260901030407 20 269 0.0 0.0 0.00 0.86 0.79 95 1016.3
20260901025832 20 269 0.0 0.0 0.00 1.09 0.79 95 1016.4
20260901025347 20 269 0.0 0.0 0.00 1.09 0.79 95 1016.5
20260901024841 20 269 0.0 0.0 0.00 1.09 0.79 95 1016.4
20260901024334 20 268 0.0 0.0 0.00 1.09 0.79 95 1016.5
20260901023851 20 269 0.0 3.2 0.00 1.09 0.79 95 1016.5
20260901023345 20 269 0.0 3.2 0.00 1.09 0.79 95 1016.5
20260901022839 20 269 1.6 3.2 0.00 1.09 0.79 95 1016.6
20260901022355 20 269 1.6 3.2 0.00 1.09 0.79 95 1016.7
20260901021847 20 269 1.6 3.2 0.00 1.09 0.79 95 1016.8
20260901021340 20 281 0.0 3.2 0.00 1.09 0.79 95 1016.8
20260901020835 20 281 1.6 3.2 0.00 1.09 0.79 95 1017.0
20260901020329 20 284 0.0 4.8 0.00 1.09 0.79 95 1016.9
20260901015837 20 202 1.6 4.8 0.00 1.17 0.79 95 1016.9
20260901015353 20 242 1.6 3.2 0.00 1.17 0.79 95 1017.0
20260901014846 20 242 1.6 3.2 0.00 1.17 0.79 95 1017.0
20260901014400 20 242 1.6 3.2 0.00 1.17 0.79 95 1017.0
20260901013832 20 242 0.0 3.2 0.00 1.17 0.79 95 1016.9
20260901013347 20 242 0.0 3.2 0.00 1.17 0.79 95 1016.8
20260901012905 20 242 0.0 3.2 0.00 1.17 0.79 95 1017.0
20260901012344 20 242 0.0 1.6 0.00 1.17 0.79 95 1016.9
20260901011838 20 242 0.0 1.6 0.00 1.17 0.79 95 1016.9
20260901011352 20 242 0.0 1.6 0.00 1.17 0.79 95 1017.0
20260901010846 20 242 0.0 1.6 0.00 1.17 0.79 95 1017.0
20260901010341 20 242 0.0 3.2 0.00 1.17 0.79 95 1017.0
20260901005908 20 242 1.6 3.2 0.00 1.19 0.79 94 1016.9
20260901005341 20 242 1.6 1.6 0.00 1.19 0.79 94 1016.9
20260901004835 20 242 0.0 3.2 0.00 1.19 0.79 94 1016.9
20260901004351 20 242 0.0 4.8 0.00 1.19 0.79 94 1016.9
20260901003906 20 242 1.6 4.8 0.00 1.19 0.79 94 1016.8
20260901003401 20 242 1.6 4.8 0.00 1.19 0.79 94 1017.0
20260901002854 20 242 0.0 3.2 0.00 1.19 0.79 94 1016.7
20260901002348 20 242 0.0 3.2 0.00 1.19 0.79 94 1016.7
20260901001843 20 242 0.0 3.2 0.00 1.19 0.79 94 1016.6
20260901001358 20 242 1.6 3.2 0.00 1.19 0.79 94 1016.6
20260901000851 20 242 0.0 4.8 0.00 1.19 0.79 94 1016.6
20260901000347 20 242 0.0 4.8 0.00 1.19 0.79 94 1016.7
20260831235835 20 225 1.6 3.2 0.00 1.22 0.79 93 1016.6
20260831235410 20 225 1.6 4.8 0.00 1.22 0.79 93 1016.7
20260831234904 20 225 1.6 4.8 0.00 1.22 0.79 93 1016.7
20260831234339 20 241 1.6 6.4 0.00 1.22 0.79 93 1016.7
20260831233852 20 238 3.2 6.4 0.00 1.22 0.79 93 1016.7
20260831233346 20 242 1.6 6.4 0.00 1.22 0.79 93 1016.7
20260831232840 20 209 1.6 4.8 0.00 1.22 0.79 93 1016.7
20260831232355 21 209 1.6 4.8 0.00 1.22 0.79 93 1016.7
20260831231849 21 209 3.2 4.8 0.00 1.22 0.79 93 1016.7
20260831231345 21 209 1.6 4.8 0.00 1.22 0.79 93 1016.7
20260831230838 21 209 3.2 4.8 0.00 1.22 0.79 93 1016.7
20260831230334 21 206 1.6 3.2 0.00 1.22 0.79 93 1016.7
20260831225841 21 206 1.6 8.0 0.00 1.24 0.79 93 1016.8
20260831225341 21 206 3.2 8.0 0.00 1.24 0.79 93 1016.7
20260831224835 21 223 3.2 8.0 0.00 1.24 0.79 93 1016.6
20260831224349 21 237 4.8 8.0 0.00 1.24 0.79 93 1016.8
20260831223845 21 198 1.6 8.0 0.00 1.24 0.79 93 1016.8
20260831223339 21 166 3.2 8.0 0.00 1.24 0.79 93 1016.9
20260831222834 21 192 1.6 4.8 0.00 1.24 0.79 93 1017.0
20260831222349 21 173 1.6 4.8 0.00 1.24 0.79 93 1016.9
20260831221843 21 173 1.6 8.0 0.00 1.24 0.79 93 1017.0
20260831221337 21 238 3.2 8.0 0.00 1.24 0.79 93 1017.0
20260831220851 21 236 0.0 11.3 0.00 1.24 0.79 93 1017.2
20260831220348 21 219 4.8 11.3 0.00 1.24 0.79 93 1017.2
20260831215836 21 207 1.6 14.5 0.00 1.24 0.79 93 1017.0
20260831215351 21 238 4.8 14.5 0.00 1.24 0.79 93 1016.8
20260831214845 21 276 6.4 12.9 0.00 1.24 0.79 93 1017.0
20260831214401 21 144 3.2 9.7 0.00 1.24 0.79 93 1017.1
20260831213833 21 190 3.2 9.7 0.00 1.24 0.79 93 1017.2
20260831213348 21 206 3.2 8.0 0.00 1.24 0.79 93 1017.3
20260831212842 21 229 3.2 9.7 0.00 1.24 0.79 93 1017.1
20260831212337 21 210 3.2 9.7 0.00 1.24 0.79 93 1017.1
20260831211851 21 214 1.6 8.0 0.00 1.24 0.79 93 1017.0
20260831211346 21 221 1.6 19.3 0.00 1.24 0.79 93 1017.0
20260831210845 21 215 8.0 19.3 0.00 1.24 0.79 93 1016.8
20260831210341 21 228 4.8 12.9 0.00 1.24 0.79 93 1016.8
20260831205848 21 215 3.2 16.1 0.00 1.24 0.79 94 1016.7
20260831205342 21 193 6.4 16.1 0.03 1.24 0.79 93 1016.7
20260831204838 21 186 3.2 11.3 0.03 1.24 0.79 93 1016.8
20260831204333 21 164 3.2 14.5 0.03 1.24 0.79 93 1016.7
20260831203848 21 220 4.8 11.3 0.03 1.24 0.79 93 1016.7
20260831203342 21 168 3.2 11.3 0.03 1.24 0.79 93 1016.8
20260831202856 21 188 1.6 11.3 0.03 1.24 0.79 93 1016.9
20260831202411 21 227 4.8 12.9 0.03 1.24 0.79 94 1016.9
20260831201903 22 237 3.2 12.9 0.03 1.24 0.79 94 1016.9